4XCAD LLMZ-LLMZ

Flight info

Callsign 4XCAD
Flight time 0h 15m
Altitude 0
Route CIRCUITS
Aircraft C172/L-V/N

Departure

Time 2026-04-12 19:27
Airport Bar Yehuda Airfield (LLMZ)

Arrival

Time 2026-04-12 19:42
Airport Bar Yehuda Airfield (LLMZ)
Time Latitude Longitude Altitude Speed Heading
2026-04-12 19:16 31.32970 35.38792 -1232 ft 0 kts 99°
2026-04-12 19:19 31.32970 35.38796 -1232 ft 0 kts 99°
2026-04-12 19:19 31.32970 35.38797 -1232 ft 0 kts 99°
2026-04-12 19:20 31.32963 35.38827 -1234 ft 0 kts 101°
2026-04-12 19:20 31.32963 35.38828 -1234 ft 0 kts 101°
2026-04-12 19:22 31.32963 35.38829 -1234 ft 0 kts 101°
2026-04-12 19:25 31.32983 35.38886 -1236 ft 13 kts 31°
2026-04-12 19:26 31.33153 35.38932 -1234 ft 31 kts 15°
2026-04-12 19:26 31.33189 35.38923 -1233 ft 2 kts 187°
2026-04-12 19:26 31.33119 35.38917 -1234 ft 37 kts 187°
2026-04-12 19:26 31.32690 35.38826 -1098 ft 73 kts 188°
2026-04-12 19:27 31.32196 35.38781 -775 ft 72 kts 180°
2026-04-12 19:27 31.31710 35.38869 -462 ft 71 kts 164°
2026-04-12 19:27 31.31370 35.39263 -405 ft 73 kts 111°
2026-04-12 19:27 31.31216 35.39841 -310 ft 74 kts 105°
2026-04-12 19:28 31.31308 35.40377 -237 ft 71 kts 32°
2026-04-12 19:28 31.31812 35.40601 -280 ft 79 kts 15°
2026-04-12 19:28 31.32357 35.40709 -319 ft 81 kts
2026-04-12 19:28 31.32911 35.40839 -365 ft 80 kts 13°
2026-04-12 19:29 31.33454 35.40987 -418 ft 76 kts 11°
2026-04-12 19:29 31.33933 35.41087 -525 ft 67 kts
2026-04-12 19:29 31.34374 35.41061 -614 ft 62 kts 333°
2026-04-12 19:29 31.34584 35.40622 -689 ft 65 kts 276°
2026-04-12 19:30 31.34596 35.40101 -759 ft 65 kts 268°
2026-04-12 19:30 31.34557 35.39578 -791 ft 65 kts 264°
2026-04-12 19:30 31.34317 35.39167 -852 ft 66 kts 199°
2026-04-12 19:30 31.33856 35.39070 -1045 ft 67 kts 194°
2026-04-12 19:31 31.33425 35.38982 -1199 ft 58 kts 189°
2026-04-12 19:31 31.33075 35.38916 -1234 ft 56 kts 189°
2026-04-12 19:31 31.32640 35.38833 -1123 ft 74 kts 186°
2026-04-12 19:31 31.32104 35.38724 -856 ft 82 kts 193°
2026-04-12 19:32 31.31565 35.38555 -511 ft 79 kts 192°
2026-04-12 19:32 31.31000 35.38500 -434 ft 81 kts 169°
2026-04-12 19:32 31.30578 35.38895 -385 ft 80 kts 110°
2026-04-12 19:32 31.30438 35.39584 -413 ft 86 kts 100°
2026-04-12 19:33 31.30415 35.40208 -289 ft 73 kts 66°
2026-04-12 19:33 31.30852 35.40497 -345 ft 85 kts 15°
2026-04-12 19:33 31.31447 35.40717 -344 ft 86 kts 19°
2026-04-12 19:33 31.32019 35.40897 -390 ft 90 kts
2026-04-12 19:34 31.32638 35.40971 -410 ft 87 kts
2026-04-12 19:34 31.33250 35.41045 -439 ft 80 kts
2026-04-12 19:34 31.33763 35.41098 -562 ft 71 kts
2026-04-12 19:34 31.34256 35.41106 -712 ft 71 kts 357°
2026-04-12 19:35 31.34729 35.41047 -824 ft 67 kts 345°
2026-04-12 19:35 31.34986 35.40674 -863 ft 64 kts 270°
2026-04-12 19:35 31.34949 35.40147 -884 ft 63 kts 259°
2026-04-12 19:35 31.34858 35.39664 -850 ft 60 kts 262°
2026-04-12 19:36 31.34625 35.39274 -861 ft 64 kts 204°
2026-04-12 19:36 31.34185 35.39124 -915 ft 67 kts 191°
2026-04-12 19:36 31.33732 35.39035 -1054 ft 66 kts 189°
2026-04-12 19:36 31.33283 35.38948 -1210 ft 61 kts 188°
2026-04-12 19:37 31.32893 35.38870 -1237 ft 67 kts 188°
2026-04-12 19:37 31.32383 35.38774 -1086 ft 87 kts 188°
2026-04-12 19:37 31.31818 35.38718 -739 ft 84 kts 181°
2026-04-12 19:37 31.31201 35.38707 -474 ft 90 kts 178°
2026-04-12 19:38 31.30728 35.39028 -125 ft 85 kts 110°
2026-04-12 19:38 31.30580 35.39743 110 ft 93 kts 99°
2026-04-12 19:38 31.30797 35.40371 169 ft 85 kts 26°
2026-04-12 19:38 31.31392 35.40567 -161 ft 94 kts 11°
2026-04-12 19:39 31.31994 35.40735 -317 ft 83 kts 16°
2026-04-12 19:39 31.32545 35.40934 -428 ft 83 kts 16°
2026-04-12 19:39 31.33100 35.41117 -448 ft 84 kts 15°
2026-04-12 19:39 31.33687 35.41302 -513 ft 85 kts 12°
2026-04-12 19:40 31.34256 35.41425 -562 ft 86 kts
2026-04-12 19:40 31.34849 35.41475 -620 ft 75 kts 360°
2026-04-12 19:40 31.35129 35.41137 -705 ft 70 kts 271°
2026-04-12 19:40 31.35108 35.40597 -773 ft 62 kts 266°
2026-04-12 19:41 31.35055 35.40109 -825 ft 60 kts 259°
2026-04-12 19:41 31.34953 35.39634 -831 ft 59 kts 246°
2026-04-12 19:41 31.34646 35.39261 -844 ft 68 kts 203°
2026-04-12 19:41 31.34188 35.39126 -960 ft 63 kts 186°
2026-04-12 19:42 31.33767 35.39055 -1089 ft 61 kts 188°
2026-04-12 19:42 31.33372 35.38974 -1205 ft 54 kts 189°
2026-04-12 19:42 31.33068 35.38906 -1234 ft 37 kts 194°
2026-04-12 19:43 31.32941 35.38784 -1233 ft 1 kts
2026-04-12 19:43 31.32941 35.38785 -1233 ft 0 kts 42°